Home   Weather   Rohrbach   Past weeks

Flag for Austria Past Weather in Rohrbach, Upper Austria, Austria — Yesterday and Last 2 Weeks

Now
34 °F

Chilly.


Feels Like: 34 °F
Forecast: 3 / 23 °F
Wind: 1 mph from North

Location: Rohrbach

Current Time: Jan 20, 2017 at 3:17:07 pm

Latest Report: Jan 20, 2017 at 2:00 pm


Visibility: N/A

Pressure: 30.50 "Hg (28.28 "Hg at 605m altitude)

Humidity: 52%

Dew Point: 18 °F

Location of RohrbachLocation

Past Weather in Rohrbach — Graph

°F

Rohrbach Temperature Yesterday

Maximum temperature yesterday: 30 °F (at 2:00 pm)
Minimum temperature yesterday: 16 °F (at 4:00 am)
Average temperature yesterday: 21 °F

High & Low Weather Summary for the Past Weeks

 TemperatureHumidityPressure
High37 °F (Jan 13, 7:00 am)100% (Jan 13, 1:00 am)30.78 "Hg (Jan 13, 1:00 am)
Low-2 °F (Jan 7, 8:00 am)51% (Jan 20, 1:00 pm)29.44 "Hg (Jan 13, 6:00 am)
Average22 °F83%30.28 "Hg
* Reported Jan 5 1:00 pm — Jan 20 1:00 pm, Rohrbach, Weather by CustomWeather, © 2017

Note: Actual official high and low records may vary slightly from our data, if they occured in-between our weather recording intervals... More about our weather records

Advertising

Rohrbach Weather History for the Previous 24 Hours

Scroll right to see more
 ConditionsComfort  
Time TempWeatherWind HumidityBarometerVisibility
1:00 pm
Fri, Jan 20
35 °FChilly.1 mph51%30.51 "HgN/A
12:00 pm31 °FChilly.2 mph55%30.54 "HgN/A
11:00 am28 °FChilly.3 mph59%30.57 "HgN/A
10:00 am26 °FChilly.1 mph60%30.58 "HgN/A
9:00 am22 °FCold.2 mph67%30.60 "HgN/A
8:00 am20 °FCold.1 mph71%30.59 "HgN/A
7:00 am19 °FCold.1 mph72%30.60 "HgN/A
6:00 am19 °FCold.1 mph73%30.60 "HgN/A
5:00 am19 °FCold.2 mph72%30.60 "HgN/A
4:00 am19 °FCold.2 mph72%30.61 "HgN/A
3:00 am19 °FCold.1 mph72%30.62 "HgN/A
2:00 am19 °FCold.2 mph72%30.63 "HgN/A
1:00 am20 °FCold.3 mph71%30.63 "HgN/A
12:00 am21 °FCold.5 mph68%30.63 "HgN/A
11:00 pm
Thu, Jan 19
22 °FCold.3 mph68%30.63 "HgN/A
10:00 pm21 °FCold.2 mph69%30.63 "HgN/A
9:00 pm22 °FCold.3 mph67%30.63 "HgN/A
8:00 pm22 °FCold.3 mph66%30.63 "HgN/A
7:00 pm22 °FCold.3 mph66%30.63 "HgN/A
6:00 pm23 °FCold.1 mph66%30.62 "HgN/A
5:00 pm24 °FPassing clouds.9 mph64%30.60 "Hg3 mi
4:00 pm27 °FChilly.2 mph64%30.59 "HgN/A
3:00 pm28 °FChilly.2 mph65%30.58 "HgN/A
Weather by CustomWeather, © 2017

See weather overviewHow to use our weather pages